Temperature
14 14 13 13 13 13 13 13 13 13 13 12 12 12 12 12 12 12 12 12 12 11 11 11 11 11 12 12 12 12 12 12 13 13 13 13 12 12 12 12 12 12 12
14 13 13 13 13 13 13 13 13 13 13 12 12 12 12 12 12 12 11 11 11 11 11 11 11 11 11 12 12 12 12 12 12 12 12 12 12 12 12 12 12 12 12
13 13 13 13 13 13 13 13 12 12 12 12 12 12 12 12 12 11 11 11 11 11 11 11 11 11 11 11 11 11 12 12 12 12 12 12 12 12 11 11 11 11 12
13 13 13 13 13 13 12 12 12 12 12 12 12 12 12 11 12 11 11 11 11 11 11 11 11 11 11 11 11 11 11 11 11 11 12 12 12 11 11 11 11 11 12
13 13 13 13 12 12 12 12 12 12 12 12 12 12 12 12 12 12 11 11 11 11 11 11 11 11 11 11 11 11 11 11 11 11 11 11 11 11 11 11 11 11 11
13 12 13 12 12 12 12 12 12 12 12 12 12 11 11 11 12 12 12 11 11 11 11 11 11 11 11 11 11 11 11 10 11 11 11 11 11 11 11 11 11 11 11
13 13 12 12 12 12 12 12 11 11 11 11 11 11 11 11 12 12 11 11 11 11 11 10 11 11 11 10 10 10 10 10 11 11 11 11 11 11 11 10 11 11 11
13 13 12 12 12 12 12 11 11 11 11 11 11 11 11 11 11 11 11 11 11 11 10 10 10 10 10 10 10 10 10 10 10 10 10 11 10 10 10 10 10 10 10
13 12 12 12 12 12 11 11 11 11 11 11 11 11 11 11 11 11 11 10 10 10 10 10 10 10 10 10 10 10 10 10 10 10 10 10 10 10 10 10 10 10 10
12 12 12 12 12 11 11 11 11 11 11 11 11 11 11 11 11 11 11 10 10 10 10 10 10 10 10 10 10 9 9 9 10 10 10 10 10 10 10 10 10 10 10
12 12 12 12 11 11 11 11 11 11 11 11 11 11 11 11 11 11 10 10 10 10 10 10 10 10 10 10 10 9 9 10 9 10 10 10 10 10 10 10 10 10 10
12 12 12 11 11 12 11 11 11 11 11 11 11 11 11 11 11 11 10 10 10 10 10 10 10 10 10 10 10 10 10 9 9 9 9 10 10 10 10 10 10 10 10
11 11 11 11 11 11 11 11 11 11 11 12 12 11 11 11 11 11 10 10 10 10 10 10 10 10 10 10 9 9 9 9 9 9 9 10 10 10 10 9 9 9 9
11 11 11 11 11 11 11 11 11 11 11 11 11 11 11 11 10 10 10 10 10 10 9 9 9 10 9 9 9 9 9 9 9 9 9 9 9 9 9 9 9 9 9
11 11 11 11 11 11 11 11 11 11 11 10 10 11 10 10 10 10 10 10 9 9 9 9 9 9 9 9 9 9 9 9 9 9 9 9 9 9 9 9 9 9 9
11 11 11 11 11 11 11 11 11 11 10 10 10 10 10 10 10 10 10 10 9 9 9 9 9 9 9 9 9 9 9 9 9 9 9 9 9 9 9 9 9 9 9
11 11 11 11 11 11 11 11 11 11 10 10 10 10 10 10 10 10 10 9 9 9 9 9 9 9 9 9 9 9 9 9 9 9 9 9 9 9 9 9 9 9 9
11 11 11 11 11 11 11 11 11 11 10 10 10 10 10 10 10 10 9 9 9 9 9 9 9 9 9 9 9 9 9 9 9 9 9 9 8 8 8 9 9 8 9
11 11 11 11 11 11 11 11 11 11 10 10 10 10 10 10 10 10 9 9 9 9 9 9 9 9 9 9 9 9 9 9 9 8 8 8 8 8 8 8 8 8 8
11 11 10 10 11 11 11 11 11 11 10 10 10 10 10 10 10 10 9 9 9 9 9 9 9 9 9 9 9 9 9 9 8 8 8 8 8 8 8 8 8 8 8
11 11 10 10 10 10 10 10 10 10 10 10 10 10 9 9 9 9 9 9 9 9 9 9 9 9 9 9 9 9 9 9 8 8 8 8 8 8 8 8 8 8 8
11 11 11 10 10 10 10 10 10 10 10 10 10 10 9 9 9 9 9 9 9 9 9 9 9 9 9 8 8 8 8 8 8 8 8 8 8 8 8 8 8 8 8
10 11 10 10 10 10 10 10 10 10 10 10 9 9 9 9 9 9 9 9 9 9 8 8 8 8 8 8 8 8 8 8 8 8 8 8 7 7 7 8 8 8 8
10 10 10 10 10 10 10 10 10 10 10 9 9 9 9 9 8 8 8 8 8 8 8 8 8 8 8 8 8 8 8 8 8 7 7 7 7 7 7 7 7 7 7
10 10 10 10 10 10 10 9 9 9 9 9 9 9 9 8 8 8 8 8 8 8 8 8 8 7 7 7 7 7 7 7 7 7 7 7 7 7 7 7 7 7 7
10 10 10 10 10 9 9 9 9 9 9 9 9 8 8 8 8 8 8 8 7 7 7 7 7 7 7 7 7 7 7 7 7 7 7 6 7 7 7 7 7 7 7
Wind_Speed
1 2 2 3 3 4 4 5 5 5 5 6 6 6 7 8 8 8 9 8 9 9 8 9 10 9 8 7 7 7 8 8 9 8 7 6 7 8 6 8 9 10 11
1 1 2 2 3 4 5 5 5 5 5 6 6 7 7 8 8 9 9 9 9 10 9 10 10 9 9 8 7 8 9 8 9 9 8 7 7 7 7 8 9 9 10
1 1 2 2 3 4 4 5 5 5 5 6 6 7 7 8 8 9 10 10 10 10 9 10 10 9 9 8 8 8 8 8 8 9 9 7 7 7 8 9 9 8 9
1 2 2 3 3 4 4 4 5 5 5 6 7 7 7 8 8 9 9 10 10 9 9 9 9 9 9 9 8 9 9 8 8 8 8 8 7 8 7 8 7 7 8
1 2 2 2 3 3 4 4 4 5 6 6 6 6 7 7 7 7 8 9 8 8 8 8 8 8 8 8 8 8 9 9 8 8 8 8 7 7 8 7 7 7 8
2 2 2 2 3 3 3 4 5 5 6 6 6 6 7 6 2 4 6 7 8 8 7 8 8 8 9 9 10 10 10 10 10 9 9 9 8 8 7 7 7 7 7
1 2 2 3 3 4 4 4 5 5 5 5 6 6 6 4 2 4 6 7 8 7 8 8 8 7 7 9 9 10 12 13 13 12 11 11 9 8 8 9 9 9 8
1 2 2 3 4 4 4 5 5 5 6 6 6 6 6 4 3 4 5 8 7 7 8 8 8 8 7 7 8 9 10 10 11 11 11 10 9 8 9 9 9 9 8
2 3 3 4 4 5 5 6 5 5 6 6 6 6 6 5 4 5 6 6 6 8 8 8 9 9 5 5 8 9 9 9 9 10 9 9 9 9 9 8 8 8 8
3 4 4 4 5 6 6 6 6 5 6 7 6 5 5 5 3 5 6 6 6 6 6 7 8 8 6 7 8 8 9 8 8 8 8 8 10 10 11 11 10 9 8
4 4 4 5 6 6 6 6 6 6 6 6 6 6 5 5 5 5 6 5 6 6 5 5 5 6 7 8 8 8 9 8 8 8 7 8 8 8 9 10 9 9 8
4 4 5 5 6 6 6 6 6 6 7 7 6 6 5 4 4 5 6 7 7 6 6 5 3 4 6 8 8 8 8 7 7 7 7 7 7 7 7 7 8 8 8
4 4 5 6 6 6 6 7 6 6 6 6 5 5 4 3 3 7 8 8 8 6 6 4 4 5 6 7 9 9 8 7 7 7 7 7 6 6 5 5 6 6 7
4 5 5 6 6 6 6 6 6 6 6 6 6 5 5 4 3 3 3 4 6 6 6 5 6 9 8 7 7 7 6 6 6 7 6 6 5 5 5 5 5 5 5
5 5 6 6 6 6 6 5 6 5 5 6 6 6 6 5 3 4 5 5 5 5 5 6 6 6 5 5 6 6 6 6 6 6 6 5 5 6 5 5 5 5 6
5 5 5 6 5 6 6 5 2 3 2 4 6 7 5 4 4 5 6 6 6 6 6 6 7 6 6 6 6 6 6 6 6 6 6 6 6 5 5 5 5 6 6
5 5 6 6 6 6 6 7 6 4 4 5 6 6 6 6 6 6 7 7 8 7 6 7 7 6 6 6 5 5 5 5 5 5 6 6 5 5 5 5 6 6 6
6 5 6 6 6 6 7 7 7 6 5 4 4 7 8 8 8 8 7 6 6 6 6 7 7 6 6 6 6 6 5 5 5 5 6 5 5 5 6 6 5 6 6
6 5 5 6 7 6 7 7 7 7 6 5 5 4 7 8 9 9 7 6 6 6 6 6 6 6 6 6 5 5 5 5 5 5 5 5 5 6 6 6 6 6 6
5 4 5 7 7 7 7 7 7 6 6 6 6 6 5 5 6 4 5 6 7 7 6 6 6 6 5 6 6 5 6 5 5 6 5 5 5 6 6 7 6 6 6
5 4 5 6 6 6 7 7 6 6 6 6 6 5 5 7 7 6 6 6 7 7 7 6 6 6 6 5 5 6 6 5 5 5 5 5 5 6 6 6 6 6 6
6 6 5 6 6 6 6 7 7 6 7 7 6 5 4 7 7 6 6 6 6 6 6 6 6 5 5 5 5 5 5 5 5 5 5 5 5 5 5 5 5 5 5
6 6 6 5 5 6 6 6 6 6 6 6 6 6 6 6 6 7 7 6 6 6 6 6 6 6 4 4 4 4 5 5 4 5 5 5 5 5 5 5 6 6 6
6 6 6 6 5 6 6 6 6 6 6 7 7 6 6 6 6 7 7 6 6 6 5 5 5 6 5 4 4 4 3 3 4 4 5 5 6 5 5 6 6 7 6
6 6 6 6 6 6 6 6 6 6 7 7 7 7 7 7 6 6 5 5 6 6 6 5 5 5 5 5 4 3 2 2 3 4 4 5 6 6 6 6 6 6 6
6 6 6 6 5 6 6 6 6 6 6 6 7 7 7 7 6 6 5 5 5 6 6 5 5 5 5 5 3 2 1 1 2 4 4 5 5 5 5 5 6 6 6
Wind_Direction
226 236 252 259 255 252 249 245 244 247 249 250 250 251 246 243 241 237 242 244 243 245 245 243 242 246 245 243 244 246 247 252 258 258 257 247 237 244 236 237 237 234 230
217 233 256 262 262 261 258 254 252 253 252 253 253 252 251 249 244 240 242 243 243 244 244 246 244 239 238 244 247 250 250 251 253 255 256 254 245 243 243 244 243 239 239
257 271 273 268 264 264 269 267 264 260 259 260 257 254 254 251 244 243 244 245 244 244 244 245 245 242 241 243 248 253 255 254 254 253 254 254 252 243 241 244 244 241 243
290 288 284 278 278 277 277 272 268 264 262 261 261 259 255 253 251 249 249 248 245 243 242 243 243 241 243 246 247 251 254 257 254 252 253 251 247 241 239 242 244 240 247
275 282 282 281 281 284 282 277 276 274 267 265 266 264 260 255 252 251 250 246 242 242 242 244 245 241 242 245 251 252 252 252 252 252 252 252 247 241 243 246 250 252 247
281 295 301 301 286 284 283 283 282 280 277 271 266 267 265 267 277 261 257 251 249 248 248 249 248 237 232 226 237 245 250 248 249 252 252 251 251 250 247 248 252 249 254
305 310 313 304 295 291 289 285 282 281 279 271 269 268 268 272 238 239 247 253 252 251 250 252 254 251 242 247 236 234 242 243 243 248 251 251 250 246 247 248 244 247 256
317 317 315 306 305 306 297 291 289 286 283 277 271 269 266 261 210 228 243 245 253 254 253 252 251 254 250 250 248 246 248 247 242 243 249 251 250 252 248 247 247 248 254
308 301 304 306 305 303 302 303 299 291 287 282 275 269 267 260 218 222 242 250 251 254 254 250 247 248 231 232 245 249 253 254 244 240 243 249 250 244 241 242 238 239 246
299 303 308 306 299 297 298 298 299 291 286 285 284 280 272 268 227 222 236 254 260 259 253 247 233 233 225 219 240 245 250 253 258 252 238 237 240 236 222 228 235 236 241
302 305 310 308 299 293 294 292 292 288 287 285 283 276 267 260 225 213 231 251 265 266 265 258 245 184 207 223 237 249 252 256 255 253 248 244 239 237 229 225 231 235 239
302 306 311 307 302 305 299 290 289 288 280 273 270 272 265 248 229 208 211 233 262 267 270 269 258 183 220 233 240 248 246 247 249 246 245 243 240 238 235 232 230 234 240
300 304 305 305 303 300 297 294 290 283 283 287 287 287 287 280 224 196 206 222 240 252 270 286 272 237 242 244 237 236 234 239 241 242 242 243 246 244 235 231 231 229 234
295 300 300 300 300 301 298 295 298 300 298 300 299 295 294 289 292 281 257 244 231 244 264 259 234 235 239 247 246 234 235 241 241 241 245 248 247 239 229 224 223 221 228
290 291 294 296 300 298 296 301 297 307 310 298 298 297 294 293 316 337 299 283 280 277 276 265 262 260 252 249 249 245 243 236 232 237 241 244 240 233 230 227 222 223 227
284 289 292 292 298 298 299 298 280 262 251 255 272 283 290 288 286 277 274 274 271 265 262 260 262 261 258 259 259 257 248 241 232 230 232 236 236 234 234 229 225 225 226
289 292 295 298 299 299 302 304 305 286 228 233 242 247 254 266 272 268 257 260 257 244 247 259 263 264 262 260 258 259 256 249 238 231 232 233 236 237 235 230 228 229 229
284 281 282 293 298 301 305 304 305 304 301 293 247 224 228 238 248 251 243 248 255 238 250 261 267 266 262 261 260 261 258 251 241 238 236 235 234 236 236 232 230 230 231
286 293 302 304 298 300 302 302 302 301 298 298 296 259 221 230 231 235 225 249 268 269 265 265 266 264 264 266 267 266 263 258 251 244 239 237 236 234 233 231 231 225 228
277 273 283 293 296 300 301 303 304 301 298 296 294 299 302 295 292 284 265 273 274 272 271 270 269 265 262 262 261 260 259 255 247 242 239 239 238 235 232 232 233 230 230
290 281 254 280 293 301 304 304 303 302 300 298 296 307 316 297 294 294 289 286 283 281 278 275 274 270 266 267 265 262 260 256 249 244 241 239 237 236 232 230 230 231 233
289 292 294 300 304 304 306 303 301 300 302 302 301 294 257 279 298 302 298 296 292 290 286 280 277 274 274 271 273 269 262 257 254 248 240 236 235 236 233 231 234 234 229
285 291 291 292 297 299 292 297 302 305 307 306 307 307 300 298 300 299 299 298 297 294 290 281 276 277 280 277 276 268 265 260 253 250 241 236 234 231 228 230 232 235 231
287 289 292 295 293 295 298 300 299 299 303 303 303 305 305 303 299 300 300 298 297 295 294 291 286 287 289 284 279 277 277 277 270 254 244 237 234 232 230 231 233 233 232
287 289 289 289 291 293 294 296 299 299 302 303 305 304 303 302 299 296 297 299 300 298 297 294 286 281 279 278 281 289 326 333 302 277 253 243 238 236 233 230 233 236 234
293 294 291 289 288 289 291 294 297 299 301 304 303 301 299 299 301 302 301 299 300 300 301 296 290 286 281 272 272 300 329 292 285 278 263 246 241 237 236 234 235 234 236
Height
1491 1491 1490 1491 1491 1490 1489 1489 1488 1488 1488 1488 1488 1488 1487 1488 1488 1488 1489 1489 1490 1490 1490 1491 1491 1491 1492 1493 1493 1493 1494 1495 1494 1494 1495 1495 1495 1495 1496 1496 1496 1496 1497
1489 1489 1488 1488 1488 1488 1487 1486 1486 1485 1485 1485 1485 1484 1484 1484 1484 1484 1484 1485 1486 1486 1486 1486 1487 1487 1487 1488 1488 1489 1489 1490 1490 1489 1490 1490 1490 1491 1491 1491 1492 1493 1493
1488 1487 1487 1486 1485 1485 1484 1484 1483 1482 1482 1481 1481 1480 1480 1480 1480 1480 1480 1481 1481 1481 1481 1482 1482 1483 1483 1483 1484 1484 1485 1486 1486 1485 1485 1485 1486 1487 1486 1487 1487 1487 1488
1486 1486 1485 1484 1483 1483 1482 1481 1480 1480 1479 1478 1477 1477 1476 1476 1476 1476 1476 1476 1476 1477 1477 1477 1478 1478 1478 1479 1479 1480 1480 1481 1481 1481 1480 1480 1481 1481 1482 1482 1482 1483 1483
1484 1484 1483 1482 1481 1481 1480 1478 1478 1477 1476 1475 1474 1473 1473 1472 1472 1472 1472 1472 1472 1473 1473 1473 1473 1473 1473 1474 1475 1475 1476 1476 1477 1476 1476 1476 1476 1476 1477 1478 1478 1478 1478
1483 1483 1482 1481 1480 1479 1478 1476 1475 1474 1473 1472 1471 1470 1469 1469 1468 1468 1468 1468 1468 1468 1468 1468 1469 1469 1468 1468 1469 1470 1471 1471 1472 1472 1472 1471 1471 1472 1472 1473 1473 1473 1473
1482 1482 1481 1480 1479 1477 1476 1475 1473 1471 1470 1469 1467 1467 1466 1465 1464 1464 1464 1464 1464 1464 1464 1463 1464 1464 1464 1464 1464 1464 1465 1466 1466 1467 1466 1466 1466 1467 1467 1468 1468 1468 1468
1481 1481 1480 1478 1477 1475 1474 1472 1470 1468 1467 1465 1464 1463 1462 1461 1461 1460 1460 1460 1460 1459 1459 1459 1459 1459 1459 1459 1459 1460 1460 1460 1461 1461 1461 1461 1461 1462 1462 1463 1464 1464 1463
1480 1479 1478 1477 1475 1473 1472 1470 1467 1465 1464 1462 1461 1460 1459 1457 1457 1456 1456 1456 1455 1455 1455 1455 1455 1455 1454 1454 1455 1455 1455 1455 1456 1456 1456 1456 1456 1456 1457 1458 1459 1460 1459
1478 1477 1476 1474 1473 1471 1469 1467 1465 1463 1461 1460 1459 1457 1456 1454 1453 1453 1453 1452 1452 1451 1451 1451 1450 1450 1450 1450 1450 1450 1450 1450 1450 1450 1450 1450 1451 1451 1452 1453 1454 1455 1455
1476 1475 1474 1472 1470 1469 1466 1464 1463 1461 1459 1457 1456 1454 1453 1451 1450 1450 1449 1449 1449 1448 1448 1447 1447 1446 1446 1445 1446 1445 1445 1445 1445 1445 1445 1445 1446 1446 1447 1447 1448 1450 1450
1474 1473 1471 1469 1468 1466 1464 1462 1460 1458 1457 1455 1453 1452 1450 1449 1447 1447 1446 1446 1445 1445 1444 1444 1443 1442 1442 1441 1441 1440 1440 1440 1440 1440 1440 1441 1441 1441 1442 1443 1443 1444 1445
1472 1470 1468 1467 1465 1463 1461 1459 1457 1455 1454 1452 1451 1449 1448 1447 1445 1444 1443 1443 1442 1441 1441 1440 1439 1438 1438 1437 1436 1436 1435 1435 1435 1435 1435 1436 1437 1437 1438 1438 1439 1439 1440
1469 1467 1466 1464 1462 1460 1458 1456 1455 1453 1451 1450 1448 1446 1445 1444 1443 1442 1441 1440 1439 1438 1437 1436 1435 1434 1434 1433 1432 1432 1431 1431 1431 1431 1431 1432 1433 1433 1433 1434 1435 1435 1436
1466 1465 1463 1461 1459 1457 1455 1453 1451 1450 1448 1447 1445 1444 1442 1441 1440 1439 1438 1437 1436 1435 1434 1433 1432 1431 1430 1430 1429 1428 1427 1427 1427 1427 1427 1428 1428 1429 1429 1430 1431 1431 1432
1463 1462 1460 1459 1457 1455 1452 1450 1448 1446 1444 1442 1441 1440 1438 1437 1436 1435 1434 1433 1432 1431 1431 1430 1429 1428 1427 1426 1425 1424 1424 1423 1423 1423 1424 1424 1424 1425 1426 1426 1427 1428 1428
1460 1459 1458 1456 1454 1452 1450 1447 1445 1443 1440 1438 1437 1436 1435 1433 1432 1431 1430 1429 1428 1427 1427 1426 1425 1424 1423 1422 1421 1420 1420 1420 1420 1420 1420 1421 1421 1421 1422 1423 1423 1424 1425
1458 1456 1455 1453 1451 1449 1447 1445 1443 1440 1438 1436 1434 1432 1431 1429 1428 1427 1426 1425 1424 1424 1423 1422 1421 1420 1419 1419 1418 1417 1417 1416 1416 1416 1417 1417 1417 1418 1418 1419 1420 1420 1421
1455 1454 1452 1451 1449 1447 1445 1442 1440 1438 1436 1433 1431 1429 1428 1426 1425 1423 1422 1422 1421 1420 1419 1418 1417 1416 1416 1415 1414 1413 1413 1413 1413 1413 1413 1413 1414 1414 1414 1415 1416 1416 1417
1452 1451 1449 1448 1446 1444 1442 1440 1438 1435 1433 1431 1429 1427 1426 1424 1423 1421 1420 1419 1418 1417 1416 1415 1414 1413 1412 1411 1411 1410 1410 1409 1409 1409 1409 1410 1410 1410 1411 1411 1412 1413 1413
1450 1448 1446 1445 1443 1442 1439 1438 1435 1433 1431 1429 1427 1424 1423 1421 1420 1419 1417 1416 1415 1414 1413 1411 1410 1409 1409 1408 1407 1407 1406 1406 1405 1405 1406 1406 1406 1407 1407 1408 1408 1409 1410
1448 1446 1444 1443 1441 1439 1437 1435 1433 1430 1428 1426 1424 1422 1420 1419 1417 1416 1414 1413 1411 1410 1409 1408 1407 1406 1405 1404 1404 1403 1402 1402 1402 1402 1402 1402 1402 1403 1404 1404 1405 1406 1407
1445 1443 1441 1440 1438 1436 1434 1432 1430 1428 1426 1424 1422 1420 1418 1416 1415 1413 1411 1410 1408 1407 1406 1405 1403 1403 1402 1401 1400 1400 1399 1399 1398 1398 1398 1399 1399 1400 1400 1401 1402 1402 1403
1441 1440 1438 1437 1435 1434 1432 1430 1428 1426 1424 1422 1420 1417 1416 1414 1412 1410 1408 1406 1405 1404 1402 1401 1400 1399 1398 1397 1397 1396 1396 1395 1395 1395 1395 1395 1396 1396 1397 1397 1398 1399 1399
1438 1437 1435 1434 1432 1431 1429 1427 1425 1423 1421 1419 1417 1415 1413 1411 1409 1407 1405 1403 1402 1401 1399 1398 1397 1395 1395 1394 1393 1393 1392 1391 1391 1391 1392 1392 1393 1393 1394 1394 1394 1395 1396
1436 1434 1433 1431 1430 1428 1426 1425 1423 1421 1419 1416 1414 1412 1410 1408 1406 1404 1402 1401 1399 1397 1396 1395 1393 1392 1391 1390 1390 1389 1389 1388 1388 1388 1389 1389 1390 1390 1390 1390 1391 1392 1392